Find Tian Lian 1-05

NORAD ID: 49011 Int'l Des: 2021-063 Owner: CAST Country: CN operational
HEOCIRCULARGSO

Live-Position

3D-Globus wird geladen...

Über Tian Lian 1-05

Beschreibung wird geladen...

Nächste Überflüge

Passes for default location (London). Set your location on the main map for personalized predictions.

Höhenverlauf

Loading altitude history...

Zweizeiliger Elementsatz

1 49011U 21063A 26106.02038875 .00000116 00000-0 00000-0 0 9993
2 49011 1.4326 81.1459 0002967 254.3920 252.8008 1.00272792 17452
Epoch: 16. Apr. 2026 • Age: 13 hours

Aktueller Status

Höhe 35784.1 km
Geschwindigkeit 3.07 km/s
Subsatellitenpunkt -0.57°S, 16.86°E
Startdatum 6. Juli 2021
Alter 4.7 years
Typ other

Technische Details

Klassifizierung Payload
Masse 2500.00 kg
Trockenmasse 1050.00 kg
Gesamtmasse 2500.00 kg
Länge 6.00 m
Durchmesser 1.70 m
Spannweite 18.10 m
Form Box + 2 Pan + Dish
Hersteller CAST
Bus-Typ DFH-3
Phasenstatus In Orbit
Besitzer/Staat CAST/CN

Most Searched